Hurricane Symbol View the latest observations near Atlantic Tropical Storm Alberto.

Station VAKF1 - 8723214 - Virginia Key, FL Image indicating link to RSS feed of recent meteorological observations for station VAKF1


Conditions at VAKF1 as of
(10:00 am EDT)
1400 GMT on 06/20/2024:
     

Click on the graph icon in the table below to see a time series plot of the last five days of that observation.

5-day plot - Wind Direction Wind Direction (WDIR): NE ( 50 deg true )
5-day plot - Wind Speed Wind Speed (WSPD): 14.0 kts
5-day plot - Wind Gust Wind Gust (GST): 18.1 kts
5-day plot - Atmospheric Pressure Atmospheric Pressure (PRES):30.06 in
5-day plot - Pressure Tendency Pressure Tendency (PTDY):+0.06 in ( Rising )
5-day plot - Air Temperature Air Temperature (ATMP): 81.3 °F
5-day plot - Water Temperature Water Temperature (WTMP): 83.7 °F
5-day plot - Wind Speed at 10 Meters Wind Speed at 10 meters (WSPD10M): 13.6 kts
5-day plot - Wind Speed at 20 Meters Wind Speed at 20 meters (WSPD20M): 15.5 kts
5-day plot -  Wind Speed, Wind Gust and Atmospheric Pressure Combined plot of Wind Speed, Gust, and Air Pressure
NOS Water Level Observation Network Water Level
Previous observations
TIME
(EDT)
5-day plot - Wind Direction
WDIR
 
5-day plot - Wind Speed
WSPD
kts
5-day plot - Wind Gust
GST
kts
5-day plot - Wave Height
WVHT
ft
5-day plot - Dominant Wave Period
DPD
sec
5-day plot - Average Wave Period
APD
sec
5-day plot - Mean Wave Direction
MWD
 
5-day plot - Atmospheric Pressure
PRES
in
5-day plot - Pressure Tendency
PTDY
in
5-day plot - Air Temperature
ATMP
°F
5-day plot - Water Temperature
WTMP
°F
5-day plot - Dew Point
DEWP
°F
5-day plot - Salinity
SAL
psu
5-day plot - Visibility
VIS
nmi
5-day plot - Tide (above MLLW)
TIDE
ft
2024-06-20 09:54 am NE 14.0 19.0----30.06- 81.9 83.7----
2024-06-20 09:48 am NE 14.0 20.0----30.06- 81.9 83.7----
2024-06-20 09:42 am NE 18.1 21.0----30.05- 81.5 83.7----
2024-06-20 09:36 amENE 15.0 20.0----30.05- 82.0 83.5----
2024-06-20 09:30 amENE 15.0 18.1----30.05- 82.0 83.5----
2024-06-20 09:24 amENE 14.0 21.0----30.05- 82.2 83.5----
2024-06-20 09:18 amENE 15.9 19.0----30.05- 82.4 83.3----
2024-06-20 09:12 am NE 14.0 17.1----30.05- 82.9 83.3----
2024-06-20 09:06 am NE 14.0 18.1----30.05- 82.8 83.3----
2024-06-20 09:00 amENE 13.0 19.0----30.05+0.06 82.6 83.5----
2024-06-20 08:54 amENE 12.0 15.9----30.04- 82.2 83.5----
2024-06-20 08:48 amENE 11.1 15.9----30.03- 81.1 83.5----
2024-06-20 08:42 am NE 14.0 17.1----30.03- 81.1 83.5----
2024-06-20 08:36 am NE 12.0 19.0----30.03- 81.9 83.5----
2024-06-20 08:30 am NE 14.0 19.0----30.03- 81.9 83.5----
2024-06-20 08:24 amENE 15.9 19.0----30.03- 83.1 83.5----
2024-06-20 08:18 amENE 15.0 19.0----30.03- 82.9 83.5----
2024-06-20 08:12 amENE 14.0 18.1----30.03- 82.9 83.5----
2024-06-20 08:06 amENE 14.0 17.1----30.02- 82.6 83.5----
2024-06-20 08:00 amENE 13.0 17.1----30.02+0.03 82.8 83.5----
2024-06-20 07:54 amENE 14.0 17.1----30.01- 82.9 83.5----
2024-06-20 07:48 amENE 13.0 17.1----30.01- 83.3 83.5----
2024-06-20 07:42 am NE 13.0 17.1----30.01- 82.9 83.5----
2024-06-20 07:36 amENE 14.0 18.1----30.01- 82.8 83.5----
2024-06-20 07:30 amENE 12.0 15.9----30.00- 83.1 83.5----
2024-06-20 07:24 amENE 12.0 17.1----30.00- 82.9 83.5----
2024-06-20 07:18 amENE 15.0 19.0----30.00- 82.8 83.5----
2024-06-20 07:12 amENE 14.0 18.1----30.00- 82.6 83.7----
2024-06-20 07:06 amENE 12.0 15.9----30.00- 82.8 83.7----
2024-06-20 07:00 amENE 13.0 15.9----30.00+0.02 82.8 83.7----
2024-06-20 06:54 amENE 14.0 18.1----29.99- 82.8 83.8----
2024-06-20 06:48 amENE 12.0 15.9----29.99- 82.8 83.8----
2024-06-20 06:42 amENE 12.0 15.0----30.00- 82.8 84.0----
2024-06-20 06:36 amENE 12.0 15.9----30.00- 82.8 84.0----
2024-06-20 06:30 amENE 12.0 15.9----30.00- 82.6 84.0----
2024-06-20 06:24 amENE 14.0 17.1----29.99- 82.8 84.0----
2024-06-20 06:18 amENE 13.0 15.9----29.99- 82.8 84.2----
2024-06-20 06:12 amENE 13.0 17.1----29.99- 82.8 84.2----
2024-06-20 06:06 amENE 13.0 17.1----29.99- 82.8 84.2----
2024-06-20 06:00 amENE 13.0 17.1----29.99+0.00 82.9 84.2----
2024-06-20 05:54 amENE 13.0 17.1----29.99- 82.6 84.2----
2024-06-20 05:48 amENE 12.0 15.9----29.99- 82.8 84.2----
2024-06-20 05:42 amENE 13.0 18.1----29.99- 82.8 84.2----
2024-06-20 05:36 amENE 12.0 15.9----29.99- 82.9 84.2----
2024-06-20 05:30 amENE 14.0 18.1----29.99- 82.8 84.4----
2024-06-20 05:24 amENE 13.0 15.9----29.99- 82.9 84.4----
2024-06-20 05:18 amENE 13.0 17.1----29.99- 82.9 84.4----
2024-06-20 05:12 amENE 14.0 18.1----29.98- 82.9 84.4----
2024-06-20 05:06 amENE 13.0 17.1----29.98- 82.9 84.4----
2024-06-20 05:00 amENE 14.0 18.1----29.98+0.00 82.9 84.4----
2024-06-20 04:54 amENE 13.0 15.9----29.98- 82.9 84.6----
2024-06-20 04:48 amENE 12.0 15.0----29.98- 82.9 84.6----
2024-06-20 04:42 amENE 13.0 15.9----29.98- 82.9 84.6----
2024-06-20 04:36 amENE 13.0 15.9----29.98- 82.9 84.6----
2024-06-20 04:30 amENE 14.0 18.1----29.98- 82.9 84.6----
2024-06-20 04:24 amENE 14.0 17.1----29.97- 82.9 84.7----
2024-06-20 04:18 amENE 13.0 17.1----29.97- 82.9 84.7----
2024-06-20 04:12 amENE 12.0 15.0----29.97- 82.8 84.7----
2024-06-20 04:06 amENE 13.0 15.9----29.97- 82.9 84.7----
2024-06-20 04:00 amENE 12.0 15.9----29.97-0.01 82.9 84.9----
2024-06-20 03:54 amENE 11.1 15.0----29.97- 82.9 84.9----
2024-06-20 03:48 amENE 11.1 14.0----29.97- 82.9 84.9----
2024-06-20 03:42 amENE 11.1 15.0----29.97- 82.9 84.9----
2024-06-20 03:36 amENE 12.0 15.0----29.98- 82.9 84.9----
2024-06-20 03:30 amENE 12.0 15.9----29.98- 82.9 84.7----
2024-06-20 03:24 amENE 12.0 15.9----29.98- 82.9 84.7----
2024-06-20 03:18 amENE 13.0 15.9----29.98- 82.9 85.1----
2024-06-20 03:12 amENE 12.0 15.0----29.98- 82.9 85.1----
2024-06-20 03:06 amENE 11.1 15.0----29.99- 82.9 85.1----
2024-06-20 03:00 amENE 13.0 15.9----29.98-0.02 83.1 85.1----
2024-06-20 02:54 am E 13.0 15.9----29.98- 83.1 85.1----
2024-06-20 02:48 amENE 13.0 15.9----29.98- 83.1 85.1----
2024-06-20 02:42 am E 13.0 15.9----29.98- 83.3 85.1----
2024-06-20 02:36 amENE 13.0 15.0----29.98- 83.3 85.1----
2024-06-20 02:30 am E 13.0 17.1----29.98- 83.3 85.1----
2024-06-20 02:24 amENE 12.0 18.1----29.98- 83.3 85.3----
2024-06-20 02:18 amENE 13.0 17.1----29.98- 83.3 85.3----
2024-06-20 02:12 amENE 13.0 19.0----29.98- 83.3 85.3----
2024-06-20 02:06 amENE 14.0 19.0----29.98- 83.3 85.3----
2024-06-20 02:00 amENE 15.0 18.1----29.98-0.02 83.3 85.3----
2024-06-20 01:54 amENE 14.0 17.1----29.98- 83.3 85.3----
2024-06-20 01:48 amENE 14.0 17.1----29.98- 83.1 85.3----
2024-06-20 01:42 amENE 13.0 18.1----29.98- 83.1 85.3----
2024-06-20 01:36 amENE 14.0 18.1----29.98- 83.3 85.3----
2024-06-20 01:30 amENE 13.0 18.1----29.98- 83.3 85.3----
2024-06-20 01:24 amENE 15.0 19.0----29.98- 83.3 85.3----
2024-06-20 01:18 amENE 13.0 17.1----29.98- 83.5 85.3----
2024-06-20 01:12 amENE 13.0 17.1----29.98- 83.3 85.3----
2024-06-20 01:06 amENE 14.0 18.1----29.98- 83.1 85.3----
2024-06-20 01:00 amENE 14.0 17.1----29.98-0.01 83.3 85.3----
2024-06-20 12:54 amENE 15.0 18.1----29.99- 83.3 85.3----
2024-06-20 12:48 amENE 15.0 18.1----29.99- 83.5 85.3----
2024-06-20 12:42 am E 13.0 17.1----29.99- 83.7 85.5----
2024-06-20 12:36 amENE 14.0 18.1----30.00- 83.7 85.5----
2024-06-20 12:30 amENE 14.0 17.1----30.00- 83.7 85.3----
2024-06-20 12:24 am E 13.0 17.1----30.00- 83.5 85.3----
2024-06-20 12:18 am NE 8.9 15.9----30.01- 82.6 85.3----
2024-06-20 12:12 amENE 12.0 15.9----30.01- 82.9 85.3----
2024-06-20 12:06 am E 12.0 17.1----30.01- 83.1 85.3----
2024-06-20 12:00 amENE 13.0 17.1----30.01+0.01 83.5 85.3----
2024-06-19 11:54 pmENE 12.0 15.0----30.01- 83.5 85.3----
2024-06-19 11:48 pmENE 13.0 15.9----30.01- 83.5 85.3----
2024-06-19 11:42 pmENE 13.0 15.9----30.01- 83.3 85.3----
2024-06-19 11:36 pmENE 12.0 15.0----30.01- 83.3 85.3----
2024-06-19 11:30 pmENE 13.0 15.0----30.01- 83.1 85.3----
2024-06-19 11:24 pm NE 8.9 12.0----30.01- 82.2 85.3----
2024-06-19 11:18 pmENE 9.9 14.0----30.01- 82.6 85.3----
2024-06-19 11:12 pm NE 13.0 19.0----30.01- 81.5 85.3----
2024-06-19 11:06 pm NE 15.0 20.0----30.01- 82.0 85.3----
2024-06-19 11:00 pmENE 12.0 17.1----30.01+0.01 83.7 85.3----
2024-06-19 10:54 pmENE 12.0 15.9----30.01- 83.7 85.3----
2024-06-19 10:48 pmENE 12.0 15.9----30.01- 83.7 85.3----
2024-06-19 10:42 pmENE 12.0 15.9----30.01- 83.7 85.3----
2024-06-19 10:36 pmENE 12.0 15.0----30.01- 83.7 85.3----
2024-06-19 10:30 pmENE 13.0 15.9----30.00- 83.7 85.3----
2024-06-19 10:24 pmENE 13.0 15.9----30.00- 83.7 85.3----
2024-06-19 10:18 pmENE 13.0 15.9----30.00- 83.7 85.3----
2024-06-19 10:12 pmENE 13.0 17.1----30.00- 83.5 85.3----
2024-06-19 10:06 pmENE 14.0 17.1----30.00- 83.5 85.3----
2024-06-19 10:00 pmENE 13.0 17.1----30.00+0.03 83.7 85.3----
2024-06-19 09:54 pmENE 13.0 17.1----30.00- 83.5 85.3----
2024-06-19 09:48 pmENE 14.0 18.1----30.00- 83.7 85.3----
2024-06-19 09:42 pmENE 15.0 19.0----30.00- 83.5 85.3----
2024-06-19 09:36 pmENE 15.0 18.1----30.00- 83.5 85.3----
2024-06-19 09:30 pmENE 13.0 17.1----30.00- 83.5 85.3----
2024-06-19 09:24 pmENE 14.0 18.1----30.00- 83.5 85.3----
2024-06-19 09:18 pm NE 14.0 18.1----30.00- 83.5 85.3----
2024-06-19 09:12 pmENE 12.0 17.1----29.99- 83.1 85.1----
2024-06-19 09:06 pmENE 12.0 15.0----29.99- 82.6 85.1----
2024-06-19 09:00 pm NE 13.0 17.1----29.99+0.03 82.2 85.3----
2024-06-19 08:54 pm NE 11.1 15.9----29.99- 83.1 85.3----
2024-06-19 08:48 pmNNE 11.1 14.0----29.99- 82.9 85.3----
2024-06-19 08:42 pm NE 13.0 17.1----29.99- 83.1 85.3----
2024-06-19 08:36 pm NE 13.0 15.9----29.99- 83.1 85.3----
2024-06-19 08:30 pm NE 13.0 15.9----29.99- 83.1 85.3----
2024-06-19 08:24 pm NE 13.0 17.1----29.99- 83.1 85.3----
2024-06-19 08:18 pm NE 13.0 15.9----29.99- 83.1 85.3----
2024-06-19 08:12 pm NE 14.0 17.1----30.00- 83.3 85.3----
2024-06-19 08:06 pm NE 14.0 17.1----30.00- 83.5 85.5----
2024-06-19 08:00 pm NE 13.0 15.9----29.99+0.01 83.7 85.5----
2024-06-19 07:54 pm NE 13.0 18.1----29.99- 83.1 85.5----
2024-06-19 07:48 pm NE 14.0 19.0----29.98- 82.9 85.5----
2024-06-19 07:42 pm NE 14.0 17.1----29.98- 82.9 85.6----
2024-06-19 07:36 pm NE 12.0 18.1----29.98- 83.7 85.6----
2024-06-19 07:30 pm NE 12.0 15.9----29.98- 83.8 85.6----
2024-06-19 07:24 pm NE 11.1 15.9----29.97- 84.2 85.6----
2024-06-19 07:18 pm NE 14.0 19.0----29.97- 83.8 85.8----
2024-06-19 07:12 pm NE 14.0 19.0----29.97- 84.0 85.8----
2024-06-19 07:06 pmNNE 11.1 15.9----29.97- 84.0 85.8----
2024-06-19 07:00 pm NE 14.0 18.1----29.97-0.02 84.0 85.8----
2024-06-19 06:54 pm NE 14.0 17.1----29.96- 84.0 86.0----
2024-06-19 06:48 pm NE 12.0 18.1----29.96-- 86.2----
2024-06-19 06:42 pm NE 13.0 18.1----29.96-- 86.2----
2024-06-19 06:36 pm NE 12.0 18.1----29.96-- 86.4----
2024-06-19 06:30 pm NE 15.0 19.0----29.96- 84.2 86.4----
2024-06-19 06:24 pm NE 14.0 19.0----29.97- 84.4 86.4----
2024-06-19 06:18 pm NE 14.0 18.1----29.96- 84.4-----
2024-06-19 06:12 pm NE 14.0 20.0----29.97- 84.2-----
2024-06-19 06:06 pm NE 14.0 18.1----29.97- 84.2-----
2024-06-19 06:00 pm NE 14.0 18.1----29.96-0.04 84.4 86.5----
2024-06-19 05:54 pm NE 13.0 17.1----29.97- 84.2 86.5----
2024-06-19 05:48 pm NE 13.0 17.1----29.96- 84.2 86.5----
2024-06-19 05:42 pm NE 13.0 15.9----29.97- 84.2 86.5----
2024-06-19 05:36 pm NE 12.0 17.1----29.97- 84.2 86.4----
2024-06-19 05:30 pm NE 12.0 15.9----29.97- 84.2 86.4----
2024-06-19 05:24 pm NE 11.1 15.0----29.97- 84.0 86.2----
2024-06-19 05:18 pmENE 12.0 15.0----29.97- 84.0 86.2----
2024-06-19 05:12 pm NE 12.0 15.9----29.97- 84.2 86.0----
2024-06-19 05:06 pm NE 12.0 14.0----29.98- 84.0 85.8----
2024-06-19 05:00 pm NE 11.1 14.0----29.98-0.04 84.0 85.6----
2024-06-19 04:54 pmENE 11.1 14.0----29.98- 84.0 85.6----
2024-06-19 04:48 pmENE 11.1 14.0----29.98- 84.2 85.6----
2024-06-19 04:42 pmENE 11.1 15.0----29.98- 84.0 85.5----
2024-06-19 04:36 pm NE 13.0 15.0----29.99- 83.8 85.5----
2024-06-19 04:30 pm NE 13.0 15.9----29.98- 84.0 85.5----
2024-06-19 04:24 pmENE 12.0 15.0----29.98- 84.0 85.5----
2024-06-19 04:18 pmENE 9.9 15.0----29.99- 83.8 85.5----
2024-06-19 04:12 pmENE 13.0 17.1----29.99- 84.0 85.5----
2024-06-19 04:06 pmENE 14.0 17.1----29.98- 83.8 85.5----
2024-06-19 04:00 pmENE 11.1 14.0----29.99-0.03 84.0 85.5----
2024-06-19 03:54 pmENE 12.0 17.1----29.99- 83.8 85.5----
2024-06-19 03:48 pmENE 13.0 17.1----29.99- 83.8 85.5----
2024-06-19 03:42 pm NE 12.0 15.9----29.99- 83.8 85.3----
2024-06-19 03:36 pm NE 12.0 15.0----29.99- 83.8 85.3----
2024-06-19 03:30 pmENE 13.0 15.9----29.99- 83.7 85.1----
2024-06-19 03:24 pmENE 12.0 15.9----30.00- 83.8 85.1----
2024-06-19 03:18 pmENE 11.1 14.0----30.00- 84.0 85.1----
2024-06-19 03:12 pmENE 11.1 15.0----30.00- 84.0 85.1----
2024-06-19 03:06 pm NE 13.0 15.9----30.01- 83.8 85.1----
2024-06-19 03:00 pmENE 12.0 14.0----30.01-0.01 83.8 85.1----
2024-06-19 02:54 pmENE 12.0 15.0----30.01- 84.0 85.1----
2024-06-19 02:48 pmENE 13.0 18.1----30.01- 83.8 84.9----
2024-06-19 02:42 pmENE 13.0 15.9----30.01- 83.8 84.7----
2024-06-19 02:36 pm NE 13.0 18.1----30.01- 83.8 84.7----
2024-06-19 02:30 pmENE 14.0 17.1----30.01- 83.8 84.7----
2024-06-19 02:24 pmENE 12.0 15.9----30.01- 83.5 84.7----
2024-06-19 02:18 pm E 13.0 18.1----30.02- 82.8 84.7----
2024-06-19 02:12 pmENE 13.0 18.1----30.01- 83.3 84.6----
2024-06-19 02:06 pm NE 14.0 17.1----30.01- 83.7 84.6----
2024-06-19 02:00 pmENE 13.0 18.1----30.02+0.01 83.8 84.6----
2024-06-19 01:54 pmENE 13.0 17.1----30.02- 83.8 84.4----
2024-06-19 01:48 pmENE 14.0 17.1----30.02- 83.8 84.4----
2024-06-19 01:42 pmENE 13.0 18.1----30.02- 83.8 84.4----
2024-06-19 01:36 pmENE 13.0 19.0----30.02- 84.0 84.4----
2024-06-19 01:30 pmENE 15.0 19.0----30.02- 83.7 84.4----
2024-06-19 01:24 pmENE 14.0 19.0----30.02- 83.8 84.4----
2024-06-19 01:18 pmENE 15.0 19.0----30.02- 83.7 84.2----
2024-06-19 01:12 pmENE 14.0 19.0----30.01- 83.8 84.2----
2024-06-19 01:06 pmENE 15.0 20.0----30.02- 83.8 84.4----
2024-06-19 01:00 pmENE 15.0 18.1----30.02+0.03 83.7 84.4----
2024-06-19 12:54 pmENE 15.9 20.0----30.02- 83.8 84.4----
2024-06-19 12:48 pmENE 17.1 20.0----30.02- 83.8 84.4----
2024-06-19 12:42 pmENE 15.9 21.0----30.02- 83.8 84.2----
2024-06-19 12:36 pmENE 15.0 20.0----30.02- 83.7 84.4----
2024-06-19 12:30 pmENE 14.0 19.0----30.02- 83.7 84.4----
2024-06-19 12:24 pmENE 14.0 20.0----30.02- 83.5 84.4----
2024-06-19 12:18 pmENE 15.9 21.0----30.02- 83.5 84.4----
2024-06-19 12:12 pmENE 15.9 20.0----30.02- 83.5 84.4----
2024-06-19 12:06 pmENE 14.0 19.0----30.02- 83.5 84.4----
2024-06-19 12:00 pmENE 14.0 19.0----30.01+0.03 83.5 84.4----
2024-06-19 11:54 amENE 15.0 19.0----30.01- 83.7 84.4----
2024-06-19 11:48 amENE 14.0 19.0----30.01- 83.7 84.4----
2024-06-19 11:42 amENE 14.0 18.1----30.01- 83.7 84.4----
2024-06-19 11:36 amENE 14.0 19.0----30.01- 83.7 84.4----
2024-06-19 11:30 amENE 15.0 20.0----30.01- 83.8 84.4----
2024-06-19 11:24 amENE 14.0 19.0----30.01- 83.8 84.2----
2024-06-19 11:18 amENE 15.0 20.0----30.01- 83.8 84.4----
2024-06-19 11:12 amENE 15.9 20.0----30.01- 83.7 84.2----
2024-06-19 11:06 amENE 15.0 19.0----30.01- 83.7 84.2----
2024-06-19 11:00 amENE 15.9 19.0----30.01+0.04 83.8 84.2----
2024-06-19 10:54 amENE 15.0 19.0----30.01- 83.7 84.2----
2024-06-19 10:48 amENE 14.0 19.0----30.00- 83.7 84.2----
2024-06-19 10:42 amENE 15.0 18.1----30.00- 83.7 84.0----
2024-06-19 10:36 amENE 13.0 18.1----30.00- 83.7 84.0----
2024-06-19 10:30 amENE 14.0 18.1----29.99- 83.7 84.0----
2024-06-19 10:24 amENE 12.0 17.1----29.99- 83.7 84.0----
2024-06-19 10:18 amENE 13.0 19.0----29.99- 83.7 84.0----
2024-06-19 10:12 am E 15.0 18.1----29.99- 83.7 84.0----
2024-06-19 10:06 amENE 14.0 18.1----29.99- 83.7 84.0----
2024-06-19 10:00 amENE 13.0 18.1----29.99+0.04 83.7 83.8----
2024-06-19 09:54 amENE 13.0 17.1----29.99- 83.7 83.8----